ALPHASAT

Last updated on Fri Jul 11 2025 00:02:44 GMT+0000 (Coordinated Universal Time)

1 39215U 13038A 25191.56668439 .00000145 00000+0 00000+0 0 9998 2 39215 2.9442 4.1456 0002394 125.6081 27.8685 1.00269489 40597
UTC large
Height (km)
Speed (km/s)
/
Latitude / Longitude
Inclination (degrees)
Orbital Period (minutes)
Azimuth
Elevation
Range (km)
Doppler Factor

Next 0 passes for location: London (51.5072 / 0.1276)

Sorry there are no passes over London.